Location: Unspecified
(44.0704°N, 88.6889°W)
Time: 11:24:00
(UTC+01:00)

Resurs 1-4 Rocket - Visible Passes

Search period start: 25 March 2019 00:00
Search period end: 04 April 2019 01:00
Orbit: 800 x 814 km, 98.6° (Epoch: 24 March)

Date Brightness Start Highest point End Pass type
(mag) Time Alt. Az. Time Alt. Az. Time Alt. Az.
25 Mar 4.4 08:20:46 10° NNE 08:22:27 20° NNE 08:22:27 20° NNE visible
25 Mar 3.9 10:01:13 10° N 10:03:32 20° NNW 10:03:32 20° NNW visible
26 Mar 4.7 07:56:34 10° NE 07:57:40 15° NE 07:57:40 15° NE visible
26 Mar 3.7 09:36:11 10° N 09:38:45 26° NNW 09:38:45 26° NNW visible
27 Mar 4.9 07:32:46 10° NE 07:32:53 10° NE 07:32:53 10° NE visible
27 Mar 3.7 09:11:21 10° N 09:13:58 29° N 09:13:58 29° N visible
28 Mar 3.8 08:46:42 10° NNE 08:49:12 29° NNE 08:49:12 29° NNE visible
28 Mar 4.1 10:28:11 10° NNW 10:30:17 15° NW 10:30:17 15° NW visible
29 Mar 4.1 08:22:14 10° NNE 08:24:25 24° NE 08:24:25 24° NE visible
29 Mar 3.7 10:02:45 10° N 10:05:30 21° NW 10:05:30 21° NW visible
30 Mar 4.5 07:58:01 10° NE 07:59:38 18° NE 07:59:38 18° NE visible
30 Mar 3.5 09:37:41 10° N 09:40:43 29° NNW 09:40:43 29° NNW visible
31 Mar 4.8 08:34:11 10° NE 08:34:51 12° NE 08:34:51 12° NE visible
31 Mar 3.4 10:12:51 10° N 10:15:56 35° N 10:15:56 35° N visible
01 Apr 3.5 09:48:11 10° NNE 09:51:10 35° NNE 09:51:10 35° NNE visible
01 Apr 4.0 11:29:46 10° NNW 11:32:15 15° NW 11:32:15 15° NW visible
02 Apr 3.8 09:23:43 10° NNE 09:26:22 29° NE 09:26:22 29° NE visible
02 Apr 3.6 11:04:17 10° NNW 11:07:28 22° NW 11:07:28 22° NW visible
03 Apr 4.2 08:59:28 10° NNE 09:01:36 21° NE 09:01:36 21° NE visible
03 Apr 3.3 10:39:12 10° N 10:42:41 31° NW 10:42:41 31° NW visible
